This demonstration page uses our WeatherBlox Daily Observations layout. Learn more.

38.89511, -77.03637

Hourly Observations for September 26, 2017

Temp ( °F °C ) Dew Point ( °F °C ) Humidity (%) Winds ( mph kmh ) Pressure ( in mb ) Visibility ( mi km ) Precip ( " mm )
12:52 am 00:52 Mostly Cloudy 75 23.9 66 18.9 74 74 NE 9 15 30 1016 10 16.09344 0 0
1:52 am 01:52 Mostly Cloudy 73 22.8 66 18.9 79 79 ENE 7 11 30 1016 10 16.09344 0 0
2:52 am 02:52 Mostly Cloudy 72 22.2 65 18.3 79 79 NNE 9 15 29.97 1015 10 16.09344 0 0
3:52 am 03:52 Partly Cloudy 72 22.2 66 18.9 82 82 NNE 10 17 29.97 1015 10 16.09344 0 0
4:52 am 04:52 Partly Cloudy 71 21.7 67 19.4 87 87 NNE 8 13 29.97 1015 10 16.09344 0 0
5:52 am 05:52 Mostly Cloudy 70 21.1 67 19.4 90 90 NE 7 11 29.97 1015 10 16.09344 0 0
6:52 am 06:52 Partly Cloudy 69 20.6 67 19.4 93 93 NE 8 13 30 1016 10 16.09344 0 0
7:52 am 07:52 Partly Cloudy 71 21.7 67 19.4 87 87 NNE 6 9 30 1016 10 16.09344 0 0
8:23 am 08:23 Mostly Cloudy 71 21.7 67 19.4 87 87 NE 10 17 30.03 1017 10 16.09344 0 0
8:52 am 08:52 Mostly Cloudy 72 22.2 68 20 87 87 ENE 9 15 30 1016 10 16.09344 0 0
9:52 am 09:52 Mostly Cloudy 73 22.8 68 20 84 84 NNE 10 17 30.03 1017 10 16.09344 0 0
10:19 am 10:19 Mostly Cloudy 74 23.3 68 20 82 82 NE 10 17 30.03 1017 10 16.09344 0 0
10:52 am 10:52 Mostly Cloudy 75 23.9 68 20 79 79 NE 9 15 30 1016 10 16.09344 0 0
11:30 am 11:30 Cloudy 76 24.4 68 20 77 77 ENE 10 17 30.03 1017 10 16.09344 0 0
11:52 am 11:52 Cloudy 77 25 68 20 74 74 ENE 13 20 30 1016 10 16.09344 0 0
12:52 pm 12:52 Cloudy 80 26.7 69 20.6 69 69 ENE 10 17 29.97 1015 10 16.09344 0 0
1:52 pm 13:52 Cloudy 83 28.3 69 20.6 63 63 NE 9 15 29.97 1015 10 16.09344 0 0
2:52 pm 14:52 Mostly Cloudy 85 29.4 69 20.6 59 59 ENE 13 20 29.94 1014 10 16.09344 0 0
3:52 pm 15:52 Mostly Cloudy 85 29.4 69 20.6 59 59 NE 9 15 29.91 1013 10 16.09344 0 0
4:52 pm 16:52 Mostly Cloudy 83 28.3 69 20.6 63 63 ENE 12 19 29.91 1013 10 16.09344 0 0
5:52 pm 17:52 Mostly Cloudy 82 27.8 72 22.2 72 72 E 8 13 29.91 1013 10 16.09344 0 0
6:52 pm 18:52 Mostly Cloudy 81 27.2 71 21.7 72 72 ENE 8 13 29.91 1013 10 16.09344 0 0
7:52 pm 19:52 Cloudy 81 27.2 70 21.1 69 69 E 6 9 29.94 1014 10 16.09344 0 0
8:52 pm 20:52 Mostly Cloudy 80 26.7 70 21.1 71 71 NE 7 11 29.94 1014 10 16.09344 0 0
9:52 pm 21:52 Mostly Cloudy 78 25.6 71 21.7 79 79 NE 6 9 29.94 1014 10 16.09344 0 0
10:52 pm 22:52 Partly Cloudy 78 25.6 70 21.1 76 76 NE 9 15 29.91 1013 10 16.09344 0 0
11:52 pm 23:52 Partly Cloudy 78 25.6 70 21.1 76 76 ENE 8 13 29.91 1013 10 16.09344 0 0

Powered by AerisWeather